Regional Weather Roundup
Issued by NWS Kansas City/Pleasant Hill, MO

Home | Current Version | Previous Version | Text Only | Print | Product List | Glossary On
Versions: 1 2 3 4 5 6 7 8 9 10 11 12 13 14 15 16 17 18 19 20 21 22 23 24 25 26 27 28 29 30 31 32 33 34 35 36 37 38 39 40 41 42 43 44 45 46 47 48 49 50
000
ASUS43 KEAX 240511
RWREAX

WEATHER ROUNDUP FOR EASTERN KANSAS AND NORTHWEST MISSOURI
NATIONAL WEATHER SERVICE KANSAS CITY/PLEASANT HILL MO
1200 AM CDT FRI OCT 24 2014

KSZ040-057-103>105-MOZ028-029-037-043-240600-
...KANSAS CITY METROPOLITAN AREA...

CITY           SKY/WX    TMP DP  RH WIND       PRES   REMARKS
K.C. INTL      PTCLDY    56  56 100 SW8       30.08F FOG
K.C. DOWNTOWN  CLEAR     59  56  89 SW5       30.08F FOG
LEES SUMMIT    CLEAR     56  55  97 SW7       30.09F FOG
OLATHE - IXD   CLEAR     56  55  97 S6        30.09F FOG
OLATHE - OJC   MOCLDY    57  57 100 S5        30.08F FOG
LAWRENCE       CLEAR     54  53  97 SE5       30.08F FOG

$$

MOZ001>008-011>017-020>025-030>033-038>040-044>046-053-054-240600-
...NORTHERN AND CENTRAL MISSOURI...

CITY           SKY/WX    TMP DP  RH WIND       PRES   REMARKS
ST. JOSEPH     FAIR      56  56 100 S6        30.06F FOG
MOSBY          FOG       50  50 100 CALM      30.07F VSB<1/4
WHITEMAN AFB   CLOUDY    61  57  88 S6        30.10S
CLINTON        CLOUDY    61  59  94 CALM      30.12R FOG
SEDALIA        CLOUDY    62  58  86 SW7       30.11F
WARSAW         NOT AVBL
MARSHALL       CLOUDY    63  61  94 S3        30.10F
CHILLICOTHE      N/A     50  49  96 CALM      30.09S
KIRKSVILLE     FOG       57  57 100 W6        30.08F VSB 1/4

$$

MOZ041-047>049-056>058-063>065-088>090-097-240600-
...EASTERN AND SOUTHERN MISSOURI...

CITY           SKY/WX    TMP DP  RH WIND       PRES   REMARKS
ST. LOUIS INTL MOCLDY    59  47  64 W3        30.10S
SPIRIT OF STL  MOCLDY    55  48  77 CALM      30.09S
COLUMBIA       CLEAR     54  53  97 SW5       30.10R
JEFFERSON CITY CLEAR     53  50  89 CALM      30.10R
MEXICO         CLEAR    N/A N/A N/A S3        30.10S
HANNIBAL       PTCLDY    54  50  87 S6        30.08F
ROLLA          CLOUDY    54  48  80 SW6       30.11R
LEBANON        CLOUDY    57  52  82 W5        30.12F
OSAGE BEACH    CLOUDY    54  50  87 CALM      30.12R
SPRINGFIELD    MOCLDY    51  50  96 SW6       30.12F FOG
BRANSON        MOCLDY    52  50  93 CALM      30.14S
NEVADA         CLEAR     54  54 100 S3        30.13S FOG
JOPLIN         PTCLDY    53  53 100 SE5       30.13S FOG
WEST PLAINS    CLOUDY    52  46  80 CALM      30.14S

$$

IAZ060-094-KSZ022-034>040-054-083-096-NEZ052-066-093-240600-
...KANSAS...SOUTHEAST NEBRASKA AND IOWA...

CITY           SKY/WX    TMP DP  RH WIND       PRES   REMARKS
TOPEKA         PTCLDY    60  59  96 S7        30.07F
MANHATTAN      PTCLDY    60  58  92 CALM      30.06S
EMPORIA        PTCLDY    57  57 100 S12       30.08F FOG
CHANUTE        CLEAR     56  55  97 S7        30.10F FOG
WICHITA        MOCLDY    63  59  87 S10       30.07S
OMAHA          CLOUDY    56  49  77 S8        30.01S
LINCOLN        CLOUDY    55  50  83 S5        30.02S
FALLS CITY     PTCLDY    61  59  93 S9        30.03F
LAMONI         FOG       57  56  96 SW8       30.05F VSB 1/4
DES MOINES     FOG       53  52  96 S7        30.04S VSB 1/4

$$




USA.gov is the U.S. government's official web portal to all federal, state and local government web resources and services.